Location: Stonelick Lake State Park
(39.2170°N, 84.0850°W)
Time: 02:04:26
(UTC-04:00)

Daily predictions for brighter satellites

Satellite Brightness Start Highest point End
(mag) Time Altitude Azimuth Time Altitude Azimuth Time Altitude Azimuth
NOSS 2-3 (D) 3.7 00:05:33 69° SSE 00:06:00 75° ESE 00:11:31 10° NE
Cosmos 389 Rocket 3.8 00:04:18 10° N 00:06:44 34° NNE 00:06:44 34° NNE
Terra 2.5 00:09:58 39° SW 00:10:47 42° W 00:15:19 10° NNW
In-Cosmos 22 Rocket 4.4 00:11:14 53° ESE 00:11:48 55° E 00:17:26 10° NNE
Okean 1-7 3.3 00:08:24 10° N 00:12:15 58° NE 00:12:15 58° NE
Cosmos 158 Rocket 4.5 00:07:44 10° N 00:12:49 46° ENE 00:13:25 44° E
ALOS 2 4.3 00:13:37 22° ENE 00:13:42 22° ENE 00:17:04 10° NNE
Meteor 2-3 Rocket 3.9 00:17:03 54° ESE 00:17:33 56° E 00:23:07 10° NNE
Cosmos 372 Rocket 3.8 00:17:21 71° S 00:17:57 87° ESE 00:23:13 10° NNE
Tiangong 1 3.8 00:23:28 10° WNW 00:24:21 17° WNW 00:24:21 17° WNW
Meteor 2-10 Rocket 4.4 00:22:31 10° N 00:27:53 42° ENE 00:28:33 40° E
Cosmos 1703 Rocket 4.0 00:23:41 10° NNW 00:27:50 52° W 00:27:50 52° W
Cosmos 2227 Rocket 4.2 00:23:56 10° WSW 00:28:32 25° NW 00:33:09 10° N
Cosmos 2263 Rocket 4.2 00:29:48 14° E 00:29:48 14° E 00:31:42 10° ENE
ATLAS 2AS CENTAUR R/B 4.0 00:26:41 10° WSW 00:33:51 44° NW 00:41:31 10° NNE
Lacrosse 4 Rocket 2.5 00:36:32 10° NW 00:40:03 40° W 00:40:03 40° W
Cosmos 1607 4.5 00:38:04 10° NNW 00:44:02 49° NE 00:45:42 39° E
Aureole 2 Rocket 4.3 00:42:11 10° NNW 00:43:52 29° NNW 00:43:52 29° NNW
ATLAS 3B R/B 2.8 00:39:01 10° NW 00:45:41 52° WSW 00:46:35 49° SW
SL-16 R/B 2.7 00:40:31 10° NW 00:45:54 46° WSW 00:46:17 45° WSW
Cosmos 2074 Rocket 3.9 00:45:00 62° SSW 00:46:09 85° W 00:52:30 10° N
Cosmos 1610 Rocket 4.4 00:46:43 63° SE 00:47:20 67° E 00:53:24 10° NNE
Cosmos 2333 Rocket 4.2 00:45:04 10° WNW 00:48:22 16° W 00:49:33 15° WSW
Cosmos 2227 4.0 00:49:13 76° SW 00:49:42 87° WNW 00:55:25 10° NNE
CZ-2C R/B 4.2 00:46:50 10° NE 00:50:05 21° E 00:50:05 21° E
Cosmos 2297 Rocket 4.3 00:50:58 10° WSW 00:55:16 22° NW 00:59:36 10° N
Cosmos 44 3.4 00:57:49 85° ENE 00:57:49 85° ENE 01:03:09 10° NNE
Cosmos 1782 4.2 00:56:26 10° N 00:59:07 34° NE 00:59:07 34° NE
USA 238 DEB 3.6 00:53:41 10° NW 01:00:45 87° WSW 01:02:07 62° SSE
COSMOS 2455 3.8 00:55:31 10° NW 01:00:51 33° WSW 01:01:03 33° WSW
USA 238 3.6 00:53:47 10° NW 01:00:51 88° WSW 01:02:13 62° SSE
Cosmos 1340 Rocket 3.9 01:05:02 42° N 01:05:02 42° N 01:07:43 10° N
Cosmos 1943 4.0 01:01:45 10° N 01:07:09 42° ENE 01:08:08 39° E
BREEZE-M DEB (TANK) 3.5 01:01:22 10° WNW 01:08:37 45° NNE 01:09:06 42° NE
Landsat 5 4.1 01:10:52 58° NNE 01:10:52 58° NNE 01:14:45 10° N
Cosmos 1932 4.4 01:05:08 10° NW 01:11:31 68° WSW 01:11:57 66° SW
Cosmos 2154 Rocket 3.8 01:17:41 73° SSE 01:18:20 84° E 01:24:39 10° N
H-2A R/B 3.2 01:15:18 10° N 01:18:48 55° NNW 01:18:48 55° NNW
Cosmos 2251 Rocket 3.8 01:14:44 10° NNW 01:19:34 56° W 01:19:34 56° W
Cosmos 1603 3.8 01:14:34 10° NNW 01:20:06 64° WSW 01:20:06 64° WSW
SeaSat 1 2.9 01:23:17 52° W 01:23:17 52° W 01:27:27 10° NW
Cosmos 1606 4.3 01:19:09 10° N 01:21:35 33° NNE 01:21:35 33° NNE
Meteor 1-27 Rocket 3.9 01:19:56 10° N 01:25:42 62° E 01:26:02 61° E
Helios 1A Rocket 3.9 01:23:48 10° NNE 01:26:47 45° NNE 01:26:47 45° NNE
Cosmos 1733 Rocket 4.0 01:30:39 43° NW 01:30:39 43° NW 01:34:19 10° N
ASTEX 1 3.8 01:25:45 10° N 01:30:16 54° WNW 01:30:16 54° WNW
RESURS DK-1 4.4 01:32:36 21° ENE 01:32:36 21° ENE 01:34:23 10° NE
Cosmos 494 Rocket 4.2 01:25:35 10° NNW 01:30:22 64° WNW 01:30:22 64° WNW
CZ-4C R/B 2.9 01:24:13 10° NNW 01:31:25 80° ENE 01:33:37 51° SE
NOSS 3-2 (C) 4.3 01:26:57 10° NNW 01:34:24 61° NE 01:38:05 34° ESE
Meteor 2-6 Rocket 4.2 01:29:07 10° NNW 01:35:00 78° W 01:35:15 76° SW
CZ-4B R/B 3.8 01:37:17 22° NW 01:37:17 22° NW 01:38:40 10° NNW
Sich 1 Rocket 4.3 01:41:10 52° NW 01:41:10 52° NW 01:44:52 10° N
Meteor 2-13 Rocket 4.4 01:40:08 64° ESE 01:40:33 66° E 01:46:38 10° NNE
Cosmos 1378 Rocket 4.2 01:38:47 10° N 01:42:09 52° N 01:42:09 52° N
Cosmos 1867 4.0 01:39:15 10° NNW 01:44:38 55° NE 01:45:23 51° E
CZ-2C R/B 3.7 01:47:42 49° E 01:48:29 53° ENE 01:53:54 10° N
ALOS 2 4.2 01:51:00 27° WNW 01:51:00 27° WNW 01:53:45 10° NNW
GEOS 3 Rocket 3.9 01:54:56 54° W 01:54:56 54° W 01:59:20 10° NW
Cosmos 962 Rocket 4.5 01:53:34 61° WSW 01:54:10 65° W 02:00:15 10° N
Cosmos 2341 Rocket 4.1 01:54:02 59° WSW 01:54:52 64° W 02:01:13 10° N
NOSS 3-4 (A) 3.5 01:54:26 62° WSW 01:55:32 78° NW 02:02:08 10° NNE
NOSS 3-4 (C) 3.5 01:54:33 63° WSW 01:55:37 79° NW 02:02:13 10° NNE
Cosmos 1825 3.7 01:57:17 35° N 01:57:17 35° N 01:59:36 10° N
NOSS 3-2 (A) 3.9 01:48:32 10° NW 01:56:07 88° WSW 01:58:20 53° SSE
SL-8 Rocket 3.8 02:00:20 72° SSE 02:01:01 84° E 02:07:22 10° N
BREEZE-M DEB (TANK) 4.3 01:48:42 10° WNW 02:03:33 80° NNE 02:05:38 38° ESE
Cosmos 1844 Rocket 4.3 02:08:12 22° ESE 02:08:19 22° E 02:12:35 10° NE
Cosmos 1782 Rocket 4.2 02:10:41 51° NNW 02:10:41 51° NNW 02:14:11 10° N
Cosmos 2263 Rocket 2.2 02:11:29 68° W 02:11:52 70° WNW 02:17:33 10° NNE
Okean 2 Rocket 3.6 02:15:39 57° NNW 02:15:39 57° NNW 02:19:24 10° N
Cosmos 2218 Rocket 3.8 02:14:09 71° S 02:14:54 89° E 02:21:17 10° N
MOS 1-B Rocket 4.3 02:22:09 45° W 02:22:09 45° W 02:27:21 10° NNW
Cosmos 2366 rocket 3.8 02:24:58 71° SSW 02:25:43 86° W 02:31:57 10° N
Abrixas rocket 4.5 02:31:34 26° NNE 02:31:34 26° NNE 02:33:36 10° NE
CZ-2C R/B 3.3 02:26:23 10° N 02:31:15 41° WNW 02:31:36 41° W
Cosmos 1371 Rocket 4.1 02:31:53 66° W 02:32:07 67° WNW 02:37:27 10° NNE
Cosmos 1975 Rocket 4.2 02:28:46 10° NNW 02:31:49 35° NW 02:31:49 35° NW
Cosmos 2056 Rocket 3.4 02:32:51 88° SW 02:32:55 89° WNW 02:38:11 10° NNE
Cosmos 407 Rocket 4.1 02:30:23 10° N 02:35:25 50° ENE 02:36:34 42° ESE
Cosmos 2278 Rocket 4.0 02:36:48 18° ESE 02:37:52 19° E 02:41:44 10° ENE
Cosmos 1536 Rocket 3.7 02:40:34 10° N 02:44:35 69° NE 02:44:35 69° NE
COSMOS 2406 3.4 02:39:21 10° NNW 02:45:07 67° ENE 02:46:47 45° SE
Cosmos 864 Rocket 4.5 02:44:45 57° WSW 02:45:40 64° W 02:51:46 10° N
Okean 1 4.4 02:46:56 10° N 02:50:39 39° ENE 02:50:39 39° ENE
Cosmos 1727 Rocket 3.9 02:44:42 10° NNW 02:50:52 68° W 02:51:47 59° SW
SL-27 R/B 3.6 02:52:03 10° N 02:54:52 45° NNE 02:54:52 45° NNE
Iridium 4 Rocket 3.3 02:52:03 10° N 02:56:56 86° W 02:57:15 79° SSW
Meteor 1-25 Rocket 4.1 02:57:03 65° S 02:57:58 86° E 03:03:48 10° N
Landsat 4 4.3 03:01:34 55° NE 03:01:34 55° NE 03:04:56 10° N
USA 234 4.0 02:59:14 10° ESE 03:05:31 52° NE 03:11:49 10° NW
RESURS DK-1 4.2 03:08:31 21° WNW 03:08:47 21° NW 03:12:01 10° N
CENTAUR R/B 3.3 03:01:44 10° NNW 03:09:35 70° NE 03:17:51 10° SE
Cosmos 1934 Rocket 4.5 03:08:09 35° SE 03:10:29 52° E 03:16:26 10° NNE
NPP 3.9 03:06:30 10° NNE 03:11:51 61° ESE 03:13:04 48° SSE
Cosmos 1954 Rocket 4.3 03:06:56 10° NNW 03:12:04 62° ENE 03:13:58 37° SE
Okean 1 Rocket 3.0 03:16:19 78° SE 03:16:31 81° E 03:21:00 10° N
PSLV R/B 3.9 03:14:16 10° N 03:18:15 52° WNW 03:18:15 52° WNW
CZ-4C R/B 4.2 03:14:09 10° WNW 03:18:45 21° W 03:18:45 21° W
Okean 1-7 Rocket 3.6 03:19:09 10° N 03:23:45 81° E 03:24:24 65° SSE
CZ-2D R/B 4.2 03:21:19 10° NE 03:25:20 20° E 03:28:57 11° SE
Cosmos 489 Rocket 4.4 03:19:18 10° NNW 03:25:35 86° ENE 03:28:37 33° SSE
ERS-2 2.4 03:24:23 10° NNE 03:28:00 60° E 03:28:00 60° E
Cosmos 1000 Rocket 4.4 03:22:40 10° N 03:28:49 78° W 03:30:53 44° S
SL-24 DEB 4.1 03:25:40 10° N 03:30:20 80° W 03:31:00 64° SSW
Cosmos 1025 Rocket 4.0 03:27:19 10° N 03:31:26 43° E 03:33:09 29° SE
Cosmos 1452 Rocket 3.8 03:37:27 44° WSW 03:38:39 53° WNW 03:43:48 10° N
Meteor 2-21 Rocket 4.4 03:37:34 41° S 03:39:53 89° E 03:46:02 10° N
ARIANE 5 R/B 3.6 03:35:49 10° NNE 03:40:25 35° E 03:42:54 22° SSE
IRS-1C 4.1 03:37:28 10° NNE 03:42:50 80° ESE 03:44:45 41° S
Cosmos 1420 Rocket 3.9 03:45:14 46° SSW 03:46:51 88° WNW 03:52:10 10° NNE
Cosmos 1812 4.0 03:44:36 10° NNW 03:47:22 28° WNW 03:47:22 28° WNW
GP-B 3.2 03:43:50 10° N 03:48:12 56° W 03:48:48 51° WSW
Cosmos 1536 3.0 03:47:37 51° SSE 03:48:28 68° E 03:52:31 10° NNE
Cosmos 1605 Rocket 4.0 03:47:06 31° S 03:50:13 77° E 03:56:31 10° N
Cosmos 1356 4.2 03:50:06 41° SE 03:50:42 46° E 03:54:08 10° NNE
CBERS-1 4.0 03:46:02 10° N 03:51:09 70° WNW 03:52:46 43° SW
Cosmos 1821 Rocket 4.2 03:48:54 38° SW 03:51:21 62° W 03:57:42 10° N
Cosmos 1844 Rocket 3.2 03:49:51 34° WSW 03:51:49 48° WNW 03:57:18 10° NNE
NOSS 2-2 (D) 3.7 03:52:27 48° WSW 03:53:22 62° NW 03:58:04 10° NNE
Meteor 1-19 Rocket 4.3 03:49:03 10° N 03:54:55 86° E 03:58:33 24° S
ATLAS 2A CENTAUR R/B 3.8 03:54:19 30° SSW 03:56:42 35° S 04:20:03 10° ESE
Cosmos 2123 Rocket 4.0 03:50:22 10° N 03:56:43 85° W 04:00:32 26° S
Cosmos 1140 Rocket 3.3 03:51:41 10° NNW 03:56:50 78° WSW 03:59:21 31° S
Gbstr 26 Del rocket 4.0 03:56:02 24° WNW 03:57:39 34° NNW 04:01:08 10° NE
SL-16 R/B 3.2 03:52:09 10° SE 03:58:10 53° ENE 04:04:12 10° N
Resurs 1-4 Rocket 3.1 03:54:34 10° NNE 03:59:35 41° E 04:03:07 18° SSE
Meteor 2-16 Rocket 4.4 03:59:46 33° SSW 04:02:39 74° W 04:08:48 10° N
Cosmos 1544 Rocket 3.7 04:02:40 35° S 04:04:27 71° E 04:08:50 10° NNE
ADEOS 3.5 04:01:41 10° N 04:06:54 74° WNW 04:09:11 34° SSW
NOSS 2-2 (C) 4.2 04:06:30 33° W 04:07:54 45° NW 04:12:28 10° NNE
COSMOS 2487 2.5 04:05:27 10° NNW 04:09:02 60° WSW 04:09:22 56° SW
SL-08 R/B 3.9 04:08:12 35° SW 04:09:14 40° W 04:13:50 10° NNW
Cosmos 1844 4.2 04:07:06 30° WSW 04:09:32 47° WNW 04:15:05 10° NNE
Cosmos 1633 2.5 04:10:16 55° SW 04:10:54 70° W 04:14:32 10° N
ATLAS 5 CENTAUR R/B 2.5 04:06:32 10° NNW 04:12:37 81° ENE 04:19:04 10° SE
Meteor 1-11 Rocket 4.1 04:11:07 31° SW 04:13:47 54° WNW 04:19:38 10° N
USA 161 1.6 04:20:43 55° W 04:20:43 55° W 04:23:35 10° NNW
Cosmos 1850 Rocket 4.0 04:16:07 10° NNW 04:21:18 62° WSW 04:24:56 20° S
Cosmos 2278 Rocket 2.5 04:18:39 29° SW 04:21:25 56° WNW 04:27:02 10° NNE
Cosmos 2297 3.7 04:20:31 26° SSW 04:23:52 79° ESE 04:29:34 10° NNE
Cosmos 1741 Rocket 4.0 04:19:47 10° NNW 04:24:58 59° WSW 04:28:39 19° S
Cosmos 1400 Rocket 3.0 04:26:04 36° SW 04:27:20 53° W 04:31:13 10° N
Cosmos 1461 4.1 04:26:38 23° WSW 04:28:53 36° NW 04:33:09 10° NNE
NOSS 5 (C) 4.4 04:28:01 38° S 04:29:03 65° ESE 04:32:07 10° NE
Meteor 1-23 Rocket 4.2 04:23:31 10° NNW 04:29:12 70° W 04:33:39 16° S
Cosmos 1892 Rocket 3.6 04:25:38 10° NNW 04:29:55 60° W 04:32:13 26° SSW
Spot 4 Rocket 4.5 04:28:17 10° N 04:33:13 48° WNW 04:36:00 24° SW
CZ-2D R/B 4.3 04:33:29 10° NNE 04:37:21 45° E 04:40:56 12° S
Cosmos 1459 Rocket 4.2 04:31:33 12° S 04:37:29 74° E 04:43:45 10° N
Meteor 1-5 Rocket 4.2 04:33:54 20° SSW 04:38:09 80° W 04:43:53 10° N
Cosmos 1802 Rocket 4.3 04:34:42 10° S 04:40:45 65° E 04:46:50 10° NNE
Cosmos 2082 Rocket 2.5 04:35:35 10° NNW 04:41:20 72° ENE 04:47:00 10° SSE
BREEZE-M DEB (TANK) 2.0 04:42:38 31° SSW 04:43:41 52° SSE 04:46:32 10° ENE
USA 234 3.5 04:42:19 10° SSE 04:48:32 46° SW 04:54:46 10° WNW
Cosmos 2100 Rocket 4.0 04:42:55 13° S 04:48:34 86° W 04:54:57 10° N
Cosmos 614 Rocket 4.4 04:43:51 10° NW 04:48:37 39° WSW 04:52:24 15° SSW
MTI 3.7 04:49:06 12° S 04:52:08 81° WSW 04:55:27 10° NNW
IRS-1D 3.8 04:47:37 10° N 04:52:29 49° WNW 04:55:56 18° SW
PSLV R/B 4.3 04:51:38 22° SSW 04:53:05 32° SSE 04:56:09 10° E
APEX 2.9 04:53:09 26° SW 04:54:32 54° WNW 04:57:55 10° NNE
OAO 3 Copernicus 4.5 04:52:44 16° WSW 04:56:32 53° S 05:01:25 10° ESE
Meteor 2-4 Rocket 4.3 04:51:43 10° NNW 04:56:35 35° W 05:00:20 15° SSW
Cosmos 1315 Rocket 3.4 04:55:24 20° SW 04:57:45 40° WNW 05:01:35 10° N
SME Rocket 3.2 04:56:02 13° S 04:59:11 47° W 05:03:16 10° NNW
Cosmos 1500 4.2 04:55:53 10° SSE 04:59:36 45° E 05:03:20 10° NNE
CENTAUR R/B 3.9 04:53:22 10° NW 04:59:52 28° WSW 05:06:32 10° SSW
Cosmos 1602 Rocket 3.5 04:55:35 10° N 04:59:55 82° W 05:04:17 10° S
MOS 1-B 4.5 04:56:41 10° N 05:02:27 65° WNW 05:07:42 12° SSW
Cosmos 1346 Rocket 3.4 04:58:47 10° N 05:02:48 61° E 05:06:45 10° SSE
CZ-2D R/B 2.6 05:00:22 10° N 05:05:37 50° WNW 05:10:16 13° SW
Cosmos 1174 3.5 05:07:00 10° NW 05:10:21 46° WSW 05:13:17 10° S
Cosmos 1486 Rocket 4.1 05:09:20 10° NNW 05:14:42 87° ENE 05:20:01 10° SSE
Meteor 1-12 Rocket 4.4 05:09:17 10° SSW 05:15:05 64° W 05:20:50 10° N
Okean O Rocket 1.6 05:11:17 10° NNE 05:15:39 85° WNW 05:19:59 10° SSW
Cosmos 1455 Rocket 4.4 05:13:29 14° SW 05:16:24 25° WNW 05:20:06 10° NNW
Cosmos 1975 3.0 05:12:53 11° SSW 05:16:34 55° W 05:20:30 10° N
Cosmos 1626 Rocket 3.8 05:12:36 10° NNW 05:16:52 52° W 05:21:08 10° S
CZ-4B R/B 3.6 05:13:19 10° NNE 05:17:51 63° ESE 05:22:12 10° S
UNKNOWN OBJECT B 3.6 05:14:54 10° N 05:18:43 38° WNW 05:22:14 11° SW
Cosmos 1833 Rocket 2.6 05:13:25 10° NNW 05:19:01 72° WSW 05:24:35 10° SSE
ARIANE 5 R/B 3.8 05:15:19 10° NNW 05:19:21 25° WNW 05:23:15 11° WSW
NAVSTAR 52 R/B(PAM-D 3.9 05:23:09 16° SW 05:24:25 36° SSE 05:26:39 10° E
Cosmos 2098 Rocket 3.6 05:21:20 10° S 05:24:49 55° E 05:29:15 10° NNE
Cosmos 2061 Rocket 4.4 05:19:19 10° SSW 05:25:24 48° WNW 05:31:35 10° N
BREEZE-M DEB (TANK) 4.3 05:20:48 10° SSW 05:27:54 35° SSE 05:30:44 10° E
DNEPR-1 R/B 3.8 05:25:11 10° NNW 05:30:41 81° WSW 05:35:13 10° SSE
PSLV R/B 4.3 05:29:49 10° N 05:33:51 50° WNW 05:37:47 10° SSW
USA 229 DEB 4.2 05:28:25 10° NNW 05:35:32 70° NE 05:42:42 10° SE
USA 229 4.3 05:28:30 10° NNW 05:35:38 69° NE 05:42:48 10° SE
IRS-1C Rocket 4.5 05:32:46 10° N 05:37:51 50° WNW 05:42:53 10° SW
Resurs 1-4 Rocket 3.4 05:34:58 10° NNW 05:39:09 24° WNW 05:43:19 10° WSW
SL-16 R/B 3.7 05:37:16 10° SW 05:42:04 23° W 05:46:53 10° NW
MOZ.5/SAFIR/RUBIN 5/SL-8 3.9 05:38:36 10° S 05:43:17 58° W 05:48:01 10° NNW
Thor Agena Rocket 3.6 05:38:50 10° S 05:43:57 62° WSW 05:49:02 10° NNW
Cosmos 2016 Rocket 4.5 05:40:09 10° SSW 05:46:09 45° WNW 05:52:06 10° N
UNK 4.3 05:42:41 10° W 05:47:09 25° NNW 05:49:24 10° NNE
